Weather History for Burbank, CA

Change the Weather History Date:

Wednesday, February 27, 2013

  Actual Average Record
Temperature  
Mean Temperature 63 °F 57 °F  
Max Temperature 79 °F 69 °F 86 °F (1972)
Min Temperature 47 °F 45 °F 32 °F (1971)
Degree Days  
Heating Degree Days 2 8  
Month to date heating degree days 231 250  
Since 1 July heating degree days 1010 1133  
Cooling Degree Days 0 0  
Month to date cooling degree days 2 0  
Year to date cooling degree days 2 2  
Growing Degree Days 13 (Base 50)    
Moisture  
Dew Point 16 °F    
Average Humidity 22    
Maximum Humidity 39    
Minimum Humidity 5    
Precipitation  
Precipitation 0.00 in 0.15 in 1.61 in (2010)
Month to date precipitation 0.16 4.34  
Year to date precipitation 0.93 7.87  
Since 1 July precipitation 3.73 12.63  
Sea Level Pressure  
Sea Level Pressure 30.17 in    
Wind  
Wind Speed 5 mph (North)    
Max Wind Speed 23 mph    
Max Gust Speed 30 mph    
Visibility 10 miles    
Events      
T = Trace of Precipitation, MM = Missing Value Source: NWS Daily Summary

Daily Weather History Graph

Daily Weather History Graph

Search for Another Location

Airport:

Trip Planner

Search our weather history database for the weather conditions in past years. The results will help you decide how hot, cold, wet, or windy it might be!

Date:

Astronomy

Feb. 27, 2013 Rise Set
Actual Time 6:24 AM PST 5:48 PM PST
Civil Twilight 5:59 AM PST 6:13 PM PST
Nautical Twilight 5:30 AM PST 6:42 PM PST
Astronomical Twilight 5:01 AM PST 7:11 PM PST
Moon 8:05 PM PST (2/27) 7:09 AM PST (2/27)
Length of Visible Light 12h 14m
Length of Day
11h 23m
Waning Gibbous, 96% of the Moon is Illuminated
Feb 27
Waning Gibbous
Mar 4
Last Quarter
Mar 11
New
Mar 19
First Quarter
Mar 27
Full

Hourly Weather History & Observations

Time (PST) Temp. Dew Point Humidity Pressure Visibility Wind Dir Wind Speed Gust Speed Precip Events Conditions
12:53 AM 53.1 °F 19.9 °F 27% 30.10 in 10.0 mi NW 5.8 mph - N/A   Clear
1:53 AM 54.0 °F 18.0 °F 24% 30.11 in 10.0 mi SE 4.6 mph - N/A   Clear
2:53 AM 50.0 °F 26.1 °F 39% 30.12 in 10.0 mi North 3.5 mph - N/A   Clear
3:53 AM 48.9 °F 21.9 °F 35% 30.14 in 10.0 mi West 4.6 mph - N/A   Clear
4:53 AM 50.0 °F 18.0 °F 28% 30.14 in 10.0 mi North 3.5 mph - N/A   Clear
5:53 AM 48.0 °F 19.9 °F 33% 30.15 in 10.0 mi NW 3.5 mph - N/A   Clear
6:53 AM 48.0 °F 21.0 °F 34% 30.17 in 10.0 mi Calm Calm - N/A   Clear
7:53 AM 53.1 °F 23.0 °F 31% 30.20 in 10.0 mi Calm Calm - N/A   Clear
8:53 AM 60.1 °F 19.0 °F 20% 30.19 in 9.0 mi Calm Calm - N/A   Clear
9:53 AM 64.9 °F 17.1 °F 16% 30.20 in 10.0 mi East 5.8 mph - N/A   Clear
10:53 AM 69.1 °F 15.1 °F 13% 30.20 in 10.0 mi SE 4.6 mph - N/A   Clear
11:53 AM 73.0 °F 15.1 °F 11% 30.19 in 10.0 mi SSE 5.8 mph - N/A   Clear
12:53 PM 77.0 °F 10.0 °F 8% 30.16 in 10.0 mi NNE 3.5 mph - N/A   Clear
1:06 PM 77.0 °F 8.6 °F 7% 30.18 in 10.0 mi NNW 12.7 mph 19.6 mph N/A   Clear
1:53 PM 77.0 °F 7.0 °F 7% 30.13 in 10.0 mi NNW 19.6 mph 29.9 mph N/A   Clear
2:53 PM 78.1 °F 3.0 °F 5% 30.13 in 10.0 mi North 16.1 mph 21.9 mph N/A   Clear
3:53 PM 77.0 °F 6.1 °F 7% 30.13 in 10.0 mi NNW 17.3 mph 21.9 mph N/A   Clear
4:53 PM 72.0 °F 21.0 °F 15% 30.15 in 10.0 mi ESE 10.4 mph - N/A   Clear
5:53 PM 69.1 °F 23.0 °F 18% 30.17 in 10.0 mi East 3.5 mph - N/A   Clear
6:53 PM 66.0 °F 21.0 °F 18% 30.19 in 10.0 mi NNW 3.5 mph - N/A   Clear
7:53 PM 64.0 °F 10.0 °F 12% 30.20 in 10.0 mi North 5.8 mph - N/A   Clear
8:53 PM 61.0 °F 9.0 °F 13% 30.22 in 10.0 mi NW 4.6 mph - N/A   Clear
9:53 PM 59.0 °F 10.9 °F 15% 30.24 in 10.0 mi ENE 3.5 mph - N/A   Clear
10:53 PM 55.9 °F 16.0 °F 21% 30.24 in 10.0 mi Calm Calm - N/A   Clear
11:53 PM 54.0 °F 16.0 °F 22% 30.25 in 10.0 mi Calm Calm - N/A   Clear